Showing default

COSMOS 252, 3530

Orbit data source: Space-Track

COSMOS 252, 3530 is a payload satellite owned by PKO (CIS) in LEO that was launched on Fri, 01 Nov 1968 UTC via a TSIKLON-2A launch vehicle from the Tyuratam Missile And Space Complex (TTMTR). Payload-class satellites include a variety of spacecraft equipped with specific instruments for various scientific and technological missions. These include communications satellites like Starlink; space stations such as the ISS; scientific satellites like the Hubble; Earth observation satellites from companies like Planet Labs, Umbra, and HawkEye 360; GPS; miniature CubeSats for education and research; and military/defense satellites.

Loading next visibility...
Identifier
3530, 1968-097A
Orbit
LEO
Last TLE update
7 hours ago
Origin
Manufacturer
TSKBM/KB1
Mission
Defense Weapon
Bus & Motor
IS, Unknown motor
Mass
1,400 kg wet, ~1,400 kg dry
Launch date (UTC)
1968-11-01 (57 years ago)
Launch vehicle
TSIKLON-2A
Launch site
Tyuratam Missile And Space Complex (TTMTR)
Object type
Payload
Rocket body
Debris
Shape & HBR
Cyl, 4 m
Radar Cross Section
7.854 m², Large (>1 m²)

Expand to show TLE details & history

TLE from 7 hours ago
0 COSMOS 252
1 03530U 68097A   25186.61665763 -.00000058  00000-0  20396-4 0  9991
2 03530  62.3274 283.7524 0986558 344.3348  12.9021 12.88143712661306
Epoch: 2025-07-05T14:47Z
TLE epoch observation values (Epoch: 2025-07-05T14:47:59.219Z)
Latitude
-0.00003°
Longitude
137.9035°
Altitude
575.637 km
Speed
7.927 km/s
True Right ascension
18h 55m 00s
True Declination
0° 00' 00"
Sunlit
Object was in full shadow at epoch
Visualization orbit readout
Latitude
-30.52428°
Longitude
119.24931°
Altitude
595.178 km
Speed
7.91 km/s
Apparent Right ascension
19h 36m 22s
Apparent Declination
-39° 32' 60"
Sunlit
Object is in full shadow
Visualization observer readout
Local Sidereal Time
10:02:24
Azimuth
101.183° ESE
Elevation
-62.122°
Doppler factor
1
Orbital elements
Apogee altitude
2,066.149 km
Perigee altitude
549.609 km
Semi-major axis
7,686.016 km
Eccentricity
0.09866
Inclination
62.3274°
RAAN
283.7524°
Arg. of periapsis
344.3348°
True anomaly
Unknown
Mean anomaly
12.9021°
Eccentric anomaly
Unknown
Mean motion
3.221 °/min
Orbital period
111.77 mins
BSTAR
0.000020396
Loading maneuver chart data...
Loading SW <> Apogee altitude chart data...

COSMOS 252 Visibility forecast

Observer location: undefined°, undefined°

Span
Click to sort rows by Start time (UTC) header in descending order
Start Az.
Max El. time (UTC)
Max El. Az.
Max El.
End time (UTC)
End Az.
9 mins2025-07-06 07:41:16.246Z176.438° S2025-07-06 07:45:16.246Z109.486° ESE31.739°2025-07-06 07:50:16.246Z50.4° ENE
10 mins2025-07-06 09:37:16.246Z266.299° W2025-07-06 09:40:16.246Z311.953° NW30.407°2025-07-06 09:47:16.246Z25.521° NE
8 mins2025-07-06 11:36:16.246Z323.902° NNW2025-07-06 11:39:16.246Z350.386° N15.63°2025-07-06 11:44:16.246Z25.664° NE
12 mins2025-07-06 13:34:16.246Z342.898° N2025-07-06 13:39:16.246Z20.478° NNE18.735°2025-07-06 13:46:16.246Z61.938° ENE
18 mins2025-07-06 15:30:16.246Z337.488° NNW2025-07-06 15:38:16.246Z48.551° ENE35.464°2025-07-06 15:48:16.246Z111.394° ESE
21 mins2025-07-06 17:25:16.246Z318.658° NNW2025-07-06 17:34:16.246Z250.699° W42.786°2025-07-06 17:46:16.246Z162.236° S
12 mins2025-07-06 19:24:16.246Z286.403° WNW2025-07-06 19:29:16.246Z258.323° W17.243°2025-07-06 19:36:16.246Z221.97° SW
|